Monterey, CA

1:31 AM PST on February 08, 2016 (GMT -0800)
Monterey Peninsula

Weather History for KMRY - October, 2013

Change the Weather History Date:

Monday, October 21, 2013

  Actual Average Record
Temperature  
Mean Temperature 53 °F 58 °F  
Max Temperature 60 °F 67 °F 81 °F (2006)
Min Temperature 46 °F 50 °F 44 °F (1996)
Degree Days  
Heating Degree Days 12    
Month to date heating degree days 134  
Since 1 July heating degree days 383  
Cooling Degree Days 0    
Month to date cooling degree days 14  
Year to date cooling degree days 49  
Growing Degree Days 3 (Base 50)    
Moisture  
Dew Point 48 °F    
Average Humidity 85    
Maximum Humidity 100    
Minimum Humidity 69    
Precipitation  
Precipitation 0.00 in - 0.02 in (2010)
Month to date precipitation 0.00  
Year to date precipitation 3.28  
Since 1 July precipitation 0.13  
Sea Level Pressure  
Sea Level Pressure 30.01 in    
Wind  
Wind Speed 5 mph (East)    
Max Wind Speed 13 mph    
Max Gust Speed 15 mph    
Visibility 4 miles    
Events Fog    
T = Trace of Precipitation, MM = Missing Value Source: NWS Daily Summary

Daily Weather History Graph

Daily Weather History Graph

Search for Another Location

Airport or City:

Trip Planner

Search our weather history database for the weather conditions in past years. The results will help you decide how hot, cold, wet, or windy it might be!

Date:

Astronomy

Oct. 21, 2013 Rise Set
Actual Time 7:20 AM PDT 6:22 PM PDT
Civil Twilight 6:54 AM PDT 6:48 PM PDT
Nautical Twilight 6:24 AM PDT 7:19 PM PDT
Astronomical Twilight 5:54 AM PDT 7:49 PM PDT
Moon 8:23 PM PDT (10/21) 9:56 AM PDT (10/21)
Length of Visible Light 11h 54m
Length of Day
11h 02m
Waning Gibbous, 92% of the Moon is Illuminated
Oct 21
Waning Gibbous
Oct 26
Last Quarter
Nov 3
New
Nov 9
First Quarter
Nov 17
Full

Hourly Weather History & Observations

Time (PDT) Temp. Windchill Dew Point Humidity Pressure Visibility Wind Dir Wind Speed Gust Speed Precip Events Conditions
12:54 AM 48.9 °F - 46.9 °F 93% 30.01 in 0.5 mi Calm Calm - N/A Fog Fog
1:17 AM 48.2 °F - 48.2 °F 100% 29.97 in 1.0 mi SSE 3.5 mph - N/A   Mist
1:37 AM 48.2 °F - 48.2 °F 100% 29.97 in 0.5 mi Calm Calm - N/A Fog Fog
1:54 AM 48.9 °F - 48.0 °F 97% 30.02 in 0.8 mi Calm Calm - N/A   Mist
2:06 AM 48.2 °F - 48.2 °F 100% 29.98 in 1.0 mi Calm Calm - N/A   Mist
2:13 AM 48.2 °F - 48.2 °F 100% 29.98 in 0.5 mi Calm Calm - N/A Fog Fog
2:54 AM 48.0 °F - 46.9 °F 96% 30.02 in 0.5 mi East 4.6 mph - N/A Fog Fog
3:48 AM 48.2 °F - 46.4 °F 93% 29.97 in 1.0 mi East 5.8 mph - N/A   Overcast
3:54 AM 46.9 °F - 46.0 °F 97% 30.01 in 1.0 mi East 6.9 mph - N/A   Overcast
4:08 AM 46.4 °F 43.5 °F 46.4 °F 100% 29.97 in 0.8 mi East 5.8 mph - N/A   Overcast
4:16 AM 48.2 °F - 46.4 °F 93% 29.97 in 1.2 mi East 3.5 mph - N/A   Overcast
4:43 AM 46.4 °F 43.5 °F 46.4 °F 100% 29.97 in 0.8 mi East 5.8 mph - N/A   Overcast
4:50 AM 46.4 °F 44.3 °F 46.4 °F 100% 29.97 in 0.5 mi East 4.6 mph - N/A Fog Fog
4:54 AM 46.9 °F - 46.0 °F 97% 30.01 in 0.8 mi East 5.8 mph - N/A   Mist
5:28 AM 46.4 °F 45.2 °F 46.4 °F 100% 29.98 in 1.0 mi ESE 3.5 mph - N/A   Overcast
5:54 AM 46.0 °F 43.9 °F 45.0 °F 96% 30.02 in 1.0 mi East 4.6 mph - N/A   Overcast
6:54 AM 46.9 °F - 46.0 °F 97% 30.03 in 1.0 mi ESE 5.8 mph - N/A   Mist
7:27 AM 46.4 °F 43.5 °F 46.4 °F 100% 29.99 in 0.8 mi East 5.8 mph - N/A   Overcast
7:54 AM 46.0 °F 42.5 °F 46.0 °F 100% 30.04 in 0.8 mi East 6.9 mph - N/A   Overcast
7:56 AM 46.4 °F 42.9 °F 46.4 °F 100% 30.00 in 0.2 mi East 6.9 mph - N/A Fog Fog
8:07 AM 46.4 °F 43.5 °F 46.4 °F 100% 30.00 in 0.2 mi East 5.8 mph - N/A Fog Fog
8:14 AM 46.4 °F 44.3 °F 46.4 °F 100% 30.00 in 0.2 mi East 4.6 mph - N/A Fog Fog
8:17 AM 46.4 °F 44.3 °F 46.4 °F 100% 30.00 in 0.5 mi East 4.6 mph - N/A Fog Fog
8:22 AM 46.4 °F 44.3 °F 46.4 °F 100% 30.00 in 0.2 mi ESE 4.6 mph - N/A Fog Fog
8:54 AM 48.0 °F - 46.9 °F 96% 30.05 in 0.2 mi East 3.5 mph - N/A Fog Fog
9:54 AM 48.9 °F - 48.0 °F 97% 30.06 in 0.2 mi NNW 3.5 mph - N/A Fog Fog
9:59 AM 48.2 °F - 48.2 °F 100% 30.01 in 3.0 mi Calm Calm - N/A   Overcast
10:18 AM 48.2 °F - 46.4 °F 93% 30.01 in 4.0 mi Calm Calm - N/A   Overcast
10:54 AM 50.0 °F - 48.0 °F 93% 30.05 in 3.0 mi WNW 4.6 mph - N/A   Overcast
11:42 AM 51.8 °F - 46.4 °F 82% 30.01 in 5.0 mi West 3.5 mph - N/A   Haze
11:54 AM 53.1 °F - 46.9 °F 80% 30.04 in 10.0 mi Variable 3.5 mph - N/A   Scattered Clouds
12:54 PM 55.9 °F - 48.0 °F 75% 30.02 in 5.0 mi WNW 5.8 mph - N/A   Clear
1:54 PM 55.9 °F - 48.9 °F 77% 30.01 in 7.0 mi WNW 6.9 mph - N/A   Clear
2:54 PM 60.1 °F - 50.0 °F 69% 29.99 in 10.0 mi WNW 8.1 mph - N/A   Clear
3:54 PM 59.0 °F - 50.0 °F 72% 30.00 in 10.0 mi West 8.1 mph - N/A   Clear
4:54 PM 55.9 °F - 50.0 °F 80% 30.00 in 10.0 mi WSW 8.1 mph - N/A   Scattered Clouds
5:54 PM 54.0 °F - 48.9 °F 83% 30.01 in 10.0 mi SW 5.8 mph - N/A   Mostly Cloudy
6:13 PM 53.6 °F - 48.2 °F 82% 29.97 in 10.0 mi West 3.5 mph - N/A   Mostly Cloudy
6:54 PM 53.1 °F - 48.9 °F 86% 30.01 in 10.0 mi Variable 3.5 mph - N/A   Overcast
7:54 PM 53.1 °F - 48.9 °F 86% 30.02 in 10.0 mi WNW 4.6 mph - N/A   Overcast
8:54 PM 53.1 °F - 50.0 °F 89% 30.03 in 10.0 mi Calm Calm - N/A   Overcast
9:26 PM 51.8 °F - 48.2 °F 88% 29.99 in 10.0 mi Calm Calm - N/A   Overcast
9:54 PM 53.1 °F - 48.9 °F 86% 30.04 in 10.0 mi Calm Calm - N/A   Overcast
10:54 PM 52.0 °F - 48.9 °F 89% 30.04 in 10.0 mi Calm Calm - N/A   Overcast
11:54 PM 51.1 °F - 48.9 °F 92% 30.04 in 9.0 mi East 3.5 mph - N/A   Overcast